Regional Weather Roundup
Issued by NWS

Home | Current Version | Previous Version | Graphics & Text | Print | Product List | Glossary On
Versions: 1 2 3 4 5 6 7 8 9 10 11 12 13 14 15 16 17 18 19 20 21 22 23 24 25 26 27 28 29 30 31 32 33 34 35 36 37 38 39 40 41 42 43 44 45 46 47 48 49 50
000
ASUS43 KLMK 221210
RWRKY
KENTUCKY REGIONAL WEATHER ROUNDUP
NATIONAL WEATHER SERVICE LOUISVILLE KY
700 AM EST WED FEB 22 2017

NOTE "FAIR" INDICATES FEW OR NO CLOUDS BELOW 12,000 FEET
WITH NO SIGNIFICANT WEATHER AND/OR OBSTRUCTIONS TO VISIBILITY.

KYZ001>023-026-027-061>063-070>075-221300-
WESTERN AND SOUTH CENTRAL KENTUCKY

CITY           SKY/WX    TMP DP  RH WIND       PRES   REMARKS
PADUCAH        CLOUDY    57  55  93 SE3       29.89F FOG
HENDERSON      CLOUDY    54  48  82 CALM      29.89S
OWENSBORO      CLOUDY    55  54  96 S7        29.91S FOG
HOPKINSVILLE   MOCLDY    55  55 100 CALM      29.90F
BOWLING GREEN  CLOUDY    56  54  93 SE6       29.93S FOG
GLASGOW        CLOUDY   N/A N/A N/A CALM      29.93F HAZE
$$

KYZ024-025-028>034-038-045-046-053-221300-
NORTH CENTRAL KENTUCKY

CITY           SKY/WX    TMP DP  RH WIND       PRES   REMARKS
LOUISVILLE/SDF CLOUDY    58  54  86 SE6       29.92R
LOUISVILLE/LOU CLOUDY    58  54  86 CALM      29.93R
FORT KNOX      CLOUDY    54  54 100 CALM      29.91R FOG
$$

KYZ035>037-039>044-047>052-055>060-089>105-221300-
NORTHEAST KENTUCKY

CITY           SKY/WX    TMP DP  RH WIND       PRES   REMARKS
LEXINGTON      CLOUDY    56  53  90 CALM      29.94S
COVINGTON      CLOUDY    56  55  97 S7        29.92S
FRANKFORT      CLOUDY    57  53  86 CALM      29.92S
$$

KYZ054-064>069-076>088-106>120-221300-
SOUTHEAST KENTUCKY

CITY           SKY/WX    TMP DP  RH WIND       PRES   REMARKS
JACKSON        LGT RAIN  53  51  93 CALM      29.96S
LONDON         LGT RAIN  54  51  90 S3        29.95R
SOMERSET       LGT RAIN  52  52 100 CALM      29.96R
MIDDLESBORO    RAIN      53  53 100 CALM      29.98S
MONTICELLO     LGT RAIN  55  53  93 VRB7      29.96R
$$





USA.gov is the U.S. government's official web portal to all federal, state and local government web resources and services.